Location: Bou Ouachlou
(32.7770°N, 5.6009°W)
Time: 13:46:53
(UTC+00:00)

Nadezhda 3 Rocket - Pass Details

Date: 07 June 2020
Orbit: 958 x 999 km, 82.9° (Epoch: 16 July)

Event Time Altitude Azimuth Distance (km) Brightness Sun altitude
Rises 02:13:48 0° 357° (N) 3,705 7.9 -28.3°
Reaches altitude 10° 02:16:21 10° 0° (N) 2,758 7.1 -28.0°
Maximum altitude 02:22:39 66° 83° (E) 1,081 4.2 -27.3°
Enters shadow 02:24:38 44° 146° (SSE) 1,347 4.5 -27.1°
